Date,TemperatureHighF,TemperatureAvgF,TemperatureLowF,DewpointHighF,DewpointAvgF,DewpointLowF,HumidityHigh,HumidityAvg,HumidityLow,PressureMaxIn,PressureMinIn,WindSpeedMaxMPH,WindSpeedAvgMPH,GustSpeedMaxMPH,PrecipitationSumIn
2013-3-1,34,32,29,28,26,24,87,79,72,30.31,30.21,16,8,0,0.00
2013-3-2,36,31,28,28,21,17,92,68,52,30.39,30.30,21,10,0,0.00
2013-3-3,53,37,23,29,24,20,92,64,34,30.33,30.03,14,3,0,0.00
2013-3-4,55,46,38,47,39,27,90,75,65,30.02,29.76,9,3,0,0.00
2013-3-5,45,40,33,43,30,21,93,68,43,30.32,29.82,32,14,0,0.03
2013-3-6,47,38,30,31,24,20,79,59,40,30.48,30.32,20,6,0,0.00
2013-3-7,59,44,33,34,30,25,82,61,34,30.44,30.30,8,2,0,0.00
2013-3-8,57,46,35,37,34,31,88,64,43,30.43,30.23,12,2,0,0.00
2013-3-9,74,59,48,55,42,35,84,55,25,30.22,29.82,15,5,0,0.01
2013-3-10,61,51,39,56,48,33,97,89,68,29.93,29.70,20,6,0,1.49
2013-3-11,44,37,32,34,29,25,91,73,51,30.13,29.92,16,6,0,0.00
2013-3-12,57,44,30,32,28,25,91,59,31,30.37,30.12,20,6,0,0.00
2013-3-13,51,41,32,31,24,19,74,53,29,30.53,30.36,20,7,0,0.00
2013-3-14,73,52,31,40,34,29,92,56,27,30.48,30.17,14,2,0,0.00
2013-3-15,83,66,46,49,44,39,78,47,24,30.17,29.83,22,3,0,0.00
2013-3-16,76,64,51,51,46,39,66,51,40,29.95,29.80,13,4,0,0.00
2013-3-17,51,42,38,40,39,36,96,87,65,30.04,29.78,13,3,0,0.15
2013-3-18,52,46,41,45,40,35,96,82,56,30.12,29.77,22,4,0,0.00
2013-3-19,53,44,33,36,27,17,94,58,26,30.32,30.11,14,3,0,0.00
2013-3-20,48,41,33,34,22,12,88,52,25,30.40,30.21,23,8,0,0.00
2013-3-21,44,34,30,31,21,13,94,62,30,30.22,30.01,9,2,0,0.48
2013-3-22,37,34,32,36,33,30,96,95,94,30.07,29.99,5,1,0,0.19
2013-3-23,44,40,36,40,36,33,95,88,79,30.07,29.81,7,1,0,0.00
2013-3-24,43,38,32,41,33,24,96,84,72,30.12,29.66,33,12,0,0.01
2013-3-25,36,31,27,26,22,19,76,71,61,30.38,30.10,28,12,0,0.00
2013-3-26,47,37,28,29,25,23,84,64,41,30.49,30.38,14,5,0,0.00
2013-3-27,59,43,27,34,28,25,95,62,31,30.47,30.30,11,2,0,0.00
2013-3-28,70,56,45,47,39,34,68,54,35,30.36,30.20,9,2,0,0.00
2013-3-29,68,58,49,52,49,44,93,73,55,30.27,30.18,13,1,0,0.00
2013-3-30,64,55,51,55,50,47,94,86,73,30.23,29.95,12,2,0,0.21
2013-3-31,69,58,48,53,48,40,97,73,41,30.03,29.91,13,2,0,0.23